Weather in Vendinga

Russia / Komi Republic     63°27′32″N   47°58′09″E
temp.,
°C
wind,
m/s
gust,
m/s
humid.,
%
clouds,
%
prec.,
mm/h
press.,
hPa
HPBL,
m
18 may, tue
tue1800:00+9s11920 0.0 102010
03:00+8ssw11940 0.0 102210
06:00+12se1274100 0.0 1022219
09:00+17se235323 0.0 1022857
12:00+20sse344088 0.0 10211325
15:00+22sse343573 0.0 10211576
18:00+21sse3741100 0.0 1019677
21:00+15se31062100 0.0 1019192
19 may, wed
wed1900:00+13sse3107330 0.0 1019209
03:00+12s3127844 0.0 1019277
06:00+16s411655 0.0 1018372
09:00+23ssw57479 0.0 1017788
12:00+27ssw57375 0.0 10161499
15:00+28sw58325 0.0 10162292
18:00+26sw473874 0.0 10151046
21:00+19ssw31163100 0.0 1016237
20 may, thu
thu2000:00+17s31072100 0.0 1016224
03:00+15s267737 0.0 1016114
06:00+19s36615 0.0 1016282
09:00+25s46401 0.0 10151012
12:00+27ssw46305 0.0 10141774
15:00+28ssw46285 0.0 10132236
18:00+26s46300 0.0 10121049
21:00+19sse395344 0.0 1012177
21 may, fri
fri2100:00+17s312630 0.0 1012268
03:00+15sse311720 0.0 1012257
06:00+19s411575 0.0 1011483
09:00+24s69395 0.0 10101777
12:00+26s69294 0.0 10082565
15:00+27s692515 0.0 10073214
18:00+24s593364 0.0 10051710
21:00+16wsw4137635 0.4 1008813
22 may, sat
sat2200:00+13s2485100 0.0 1007107
03:00+14sw2586100 0.1 1007289
06:00+13wnw3787100 0.6 1007522
09:00+15wnw475797 0.6 10091459
12:00+18w68315 0.0 10102479
15:00+19w692494 0.0 10113122
18:00+18w46325 0.0 10122727
21:00+13w39425 0.0 1015240